Location: Rowland
(34.5359°N, 79.2929°W)
Time: 17:55:24
(UTC+00:00)

S-56A Canister/Altair - Pass Details

Date: 07 October 2022
Orbit: 638 x 2494 km, 38.9° (Epoch: 06 December)

Event Time Altitude Azimuth Distance (km) Brightness Sun altitude
Exits shadow 07:23:32 38° 66° (ENE) 2,048 9.8 -46.8°
Drops below altitude 10° 07:27:44 10° 78° (ENE) 3,170 11.2 -46.1°
Sets 07:30:06 0° 81° (E) 3,927 11.8 -45.7°
